When you browse on this site, cookies collect data to enhance your experience and personalize the content and advertising you see.
Visit our Privacy Policy to learn more. By continuing to use the site, you agree to this use of cookies and data.
  • In Denmark
  • List of Countries
  • For 7 days
  • Water Temperature
  • Satellite Maps
  • Weather Map
  • Weather Widgets
  • user-avatar
    Login

    Hourly Weather Jawornica

    Today, 23 July, Tuesday

    Time Temperature Precipitation Wind Pressure Humidity
    00:00 +16°C° 0 mm 0 mps 712 mmHg 83%
    01:00 +15°C° 0 mm 0 mps 712 mmHg 86%
    02:00 +15°C° 0 mm 0 mps 712 mmHg 86%
    03:00 +15°C° 0 mm 0 mps 712 mmHg 86%
    04:00 +15°C° 0 mm 0 mps 712 mmHg 86%
    05:00 +18°C° 0 mm 1 mps 712 mmHg 83%
    06:00 +19°C° 0 mm 1 mps 712 mmHg 80%
    07:00 +20°C° 0 mm 1 mps 712 mmHg 77%
    08:00 +20°C° 0 mm 2 mps 712 mmHg 73%
    09:00 +21°C° 0 mm 2 mps 712 mmHg 69%
    10:00 +22°C° 0 mm 3 mps 713 mmHg 65%
    11:00 +24°C° 0 mm 3 mps 712 mmHg 63%
    12:00 +25°C° 0 mm 3 mps 712 mmHg 60%
    13:00 +26°C° 0 mm 3 mps 712 mmHg 58%
    14:00 +26°C° 0 mm 3 mps 712 mmHg 60%
    15:00 +25°C° 0 mm 4 mps 712 mmHg 62%
    16:00 +25°C° 0 mm 4 mps 712 mmHg 65%
    17:00 +24°C° 0 mm 3 mps 711 mmHg 69%
    18:00 +23°C° 0 mm 2 mps 711 mmHg 74%
    19:00 +22°C° 0 mm 1 mps 711 mmHg 79%
    20:00 +21°C° 0 mm 1 mps 711 mmHg 82%
    21:00 +20°C° 0 mm 1 mps 711 mmHg 85%
    22:00 +18°C° 0 mm 1 mps 711 mmHg 89%
    23:00 +16°C° 0 mm 0 mps 711 mmHg 89%

    Tomorrow, 24 July, Wednesday

    Time Temperature Precipitation Wind Pressure Humidity
    00:00 +16°C° 0 mm 0 mps 710 mmHg 90%
    01:00 +15°C° 0 mm 0 mps 710 mmHg 91%
    02:00 +15°C° 0 mm 0 mps 710 mmHg 92%
    03:00 +15°C° 0 mm 0 mps 710 mmHg 92%
    04:00 +14°C° 0 mm 0 mps 710 mmHg 92%
    05:00 +16°C° 0 mm 0 mps 710 mmHg 88%
    06:00 +18°C° 0 mm 0 mps 710 mmHg 84%
    07:00 +19°C° 0 mm 0 mps 710 mmHg 80%
    08:00 +22°C° 0 mm 1 mps 711 mmHg 73%
    09:00 +24°C° 0 mm 1 mps 711 mmHg 66%
    10:00 +25°C° 0 mm 1 mps 711 mmHg 58%
    11:00 +26°C° 0 mm 2 mps 711 mmHg 56%
    12:00 +26°C° 0 mm 2 mps 711 mmHg 53%
    13:00 +27°C° 0 mm 2 mps 711 mmHg 51%
    14:00 +27°C° 0 mm 2 mps 711 mmHg 52%
    15:00 +27°C° 0 mm 2 mps 710 mmHg 53%
    16:00 +27°C° 0 mm 3 mps 710 mmHg 55%
    17:00 +25°C° 0 mm 2 mps 710 mmHg 61%
    18:00 +24°C° 0 mm 2 mps 710 mmHg 68%
    19:00 +23°C° 0 mm 1 mps 710 mmHg 75%
    20:00 +21°C° 0 mm 1 mps 710 mmHg 79%
    21:00 +20°C° 0 mm 1 mps 710 mmHg 83%
    22:00 +18°C° 0 mm 1 mps 710 mmHg 86%
    23:00 +18°C° 0 mm 1 mps 710 mmHg 87%

    Day after tomorrow, 25 July, Thursday

    Time Temperature Precipitation Wind Pressure Humidity
    00:00 +16°C° 0 mm 0 mps 710 mmHg 88%
    01:00 +15°C° 0 mm 0 mps 710 mmHg 88%
    02:00 +15°C° 0 mm 0 mps 710 mmHg 89%
    03:00 +15°C° 0 mm 0 mps 710 mmHg 89%
    04:00 +15°C° 0 mm 0 mps 710 mmHg 89%
    05:00 +16°C° 0 mm 0 mps 710 mmHg 84%
    06:00 +18°C° 0 mm 0 mps 710 mmHg 80%
    07:00 +20°C° 0 mm 0 mps 710 mmHg 75%
    08:00 +21°C° 0 mm 0 mps 711 mmHg 69%
    09:00 +23°C° 0 mm 0 mps 711 mmHg 63%
    10:00 +26°C° 0 mm 1 mps 711 mmHg 57%
    11:00 +27°C° 0 mm 1 mps 711 mmHg 55%
    12:00 +27°C° 0 mm 1 mps 711 mmHg 52%
    13:00 +28°C° 0 mm 2 mps 711 mmHg 49%
    14:00 +28°C° 0 mm 2 mps 710 mmHg 50%
    15:00 +28°C° 0 mm 2 mps 710 mmHg 51%
    16:00 +28°C° 0 mm 2 mps 710 mmHg 52%
    17:00 +26°C° 0 mm 2 mps 709 mmHg 59%
    18:00 +25°C° 0 mm 2 mps 709 mmHg 65%
    19:00 +23°C° 0 mm 2 mps 709 mmHg 71%
    20:00 +21°C° 0 mm 2 mps 709 mmHg 74%
    21:00 +21°C° 0 mm 1 mps 709 mmHg 77%
    22:00 +19°C° 0 mm 1 mps 709 mmHg 80%
    23:00 +19°C° 0 mm 1 mps 709 mmHg 82%

    26 July, Friday

    Time Temperature Precipitation Wind Pressure Humidity
    00:00 +18°C° 0 mm 1 mps 708 mmHg 83%
    01:00 +18°C° 0 mm 1 mps 708 mmHg 85%
    02:00 +18°C° 0 mm 1 mps 708 mmHg 86%
    03:00 +16°C° 0 mm 1 mps 708 mmHg 87%
    04:00 +16°C° 0 mm 1 mps 708 mmHg 88%
    05:00 +18°C° 0 mm 1 mps 708 mmHg 85%
    06:00 +20°C° 0 mm 1 mps 708 mmHg 81%
    07:00 +21°C° 0 mm 1 mps 708 mmHg 78%
    08:00 +21°C° 0 mm 2 mps 708 mmHg 73%
    09:00 +22°C° 0 mm 3 mps 708 mmHg 68%
    10:00 +23°C° 0 mm 4 mps 708 mmHg 64%
    11:00 +23°C° 0 mm 4 mps 708 mmHg 60%
    12:00 +23°C° 0 mm 4 mps 708 mmHg 56%
    13:00 +23°C° 0 mm 4 mps 707 mmHg 52%
    14:00 +23°C° 0 mm 4 mps 707 mmHg 53%
    15:00 +23°C° 0 mm 4 mps 707 mmHg 54%
    16:00 +23°C° 0 mm 5 mps 706 mmHg 56%
    17:00 +21°C° 0 mm 4 mps 706 mmHg 62%
    18:00 +20°C° 0 mm 3 mps 706 mmHg 67%
    19:00 +19°C° 0 mm 3 mps 706 mmHg 73%
    20:00 +18°C° 0 mm 2 mps 706 mmHg 77%
    21:00 +17°C° 0 mm 2 mps 706 mmHg 81%
    22:00 +16°C° 0 mm 2 mps 706 mmHg 85%
    23:00 +15°C° 0 mm 2 mps 706 mmHg 86%

    27 July, Saturday

    Time Temperature Precipitation Wind Pressure Humidity
    00:00 +15°C° 0 mm 2 mps 706 mmHg 88%
    01:00 +14°C° 0 mm 2 mps 705 mmHg 89%
    02:00 +14°C° 0 mm 2 mps 705 mmHg 90%
    03:00 +13°C° 0 mm 2 mps 705 mmHg 92%
    04:00 +13°C° 0 mm 2 mps 705 mmHg 93%
    05:00 +15°C° 0 mm 2 mps 705 mmHg 89%
    06:00 +16°C° 0 mm 2 mps 705 mmHg 85%
    07:00 +17°C° 0 mm 3 mps 705 mmHg 81%
    08:00 +18°C° 0 mm 3 mps 705 mmHg 78%
    09:00 +19°C° 0 mm 4 mps 705 mmHg 74%
    10:00 +21°C° 0 mm 4 mps 705 mmHg 70%
    11:00 +21°C° 0.1 mm 4 mps 705 mmHg 68%
    12:00 +22°C° 0.1 mm 4 mps 705 mmHg 65%
    13:00 +23°C° 0.1 mm 4 mps 705 mmHg 62%
    14:00 +23°C° 0.3 mm 4 mps 705 mmHg 64%
    15:00 +22°C° 0.3 mm 4 mps 704 mmHg 65%
    16:00 +22°C° 0.3 mm 4 mps 704 mmHg 66%
    17:00 +21°C° 0 mm 4 mps 704 mmHg 70%
    18:00 +20°C° 0 mm 4 mps 704 mmHg 74%
    19:00 +19°C° 0 mm 3 mps 704 mmHg 77%
    20:00 +18°C° 0 mm 3 mps 704 mmHg 80%
    21:00 +17°C° 0 mm 3 mps 704 mmHg 82%
    22:00 +16°C° 0 mm 3 mps 704 mmHg 85%
    23:00 +15°C° 0 mm 2 mps 704 mmHg 88%

    28 July, Sunday

    Time Temperature Precipitation Wind Pressure Humidity
    00:00 +15°C° 0 mm 2 mps 703 mmHg 90%
    01:00 +14°C° 0 mm 2 mps 703 mmHg 93%
    02:00 +14°C° 0 mm 2 mps 703 mmHg 94%
    03:00 +14°C° 0 mm 2 mps 703 mmHg 96%
    04:00 +14°C° 0 mm 2 mps 703 mmHg 97%
    05:00 +14°C° 0 mm 3 mps 703 mmHg 93%
    06:00 +16°C° 0 mm 3 mps 703 mmHg 90%
    07:00 +17°C° 0 mm 3 mps 703 mmHg 87%
    08:00 +18°C° 0 mm 4 mps 704 mmHg 82%
    09:00 +19°C° 0 mm 4 mps 704 mmHg 77%
    10:00 +20°C° 0 mm 5 mps 704 mmHg 72%
    11:00 +21°C° 0.1 mm 5 mps 704 mmHg 68%
    12:00 +22°C° 0.1 mm 5 mps 704 mmHg 65%
    13:00 +23°C° 0.1 mm 5 mps 703 mmHg 61%
    14:00 +23°C° 0.6 mm 5 mps 703 mmHg 62%
    15:00 +23°C° 0.6 mm 4 mps 703 mmHg 63%
    16:00 +23°C° 0.6 mm 4 mps 703 mmHg 64%
    17:00 +22°C° 0.4 mm 4 mps 703 mmHg 70%
    18:00 +20°C° 0.4 mm 3 mps 703 mmHg 76%
    19:00 +19°C° 0.4 mm 2 mps 703 mmHg 81%
    20:00 +18°C° 0.4 mm 2 mps 703 mmHg 83%
    21:00 +17°C° 0.4 mm 2 mps 703 mmHg 85%
    22:00 +18°C° 0.4 mm 1 mps 703 mmHg 87%
    23:00 +16°C° 0 mm 1 mps 703 mmHg 88%
    Show more